Location: Drocourt
(49.0571°N, 1.7669°E)
Time: 15:12:45
(UTC+00:00)

Vanguard 2 Rocket - Pass Details

Date: 20 April 2024
Orbit: 556 x 3304 km, 32.9° (Epoch: 22 May)

Event Time Altitude Azimuth Distance (km) Brightness Sun altitude
Rises 21:40:50 0° 234° (SW) 6,310 11.2 -22.5°
Reaches altitude 10° 21:44:54 10° 228° (SW) 5,589 10.8 -22.9°
Maximum altitude 22:01:22 44° 164° (SSE) 4,098 9.7 -24.3°
Drops below altitude 10° 22:18:55 10° 102° (ESE) 5,943 10.7 -25.7°
Sets 22:23:24 0° 96° (E) 6,727 11.1 -26.0°
